Powrót do katalogu

STARLINK-5387

AktywnyŁącznośćVLEO
NORAD 54842·PAYLOAD·🇺🇸 United States

Wystrzelony Dec 28, 2022 z Cape Canaveral Space Force Station

Loading…

Następne Przeloty (najbliższe 24 godziny)

TLE

ŚwieżeSource: CelesTrak SupGP

Epoka: Sep 15, 2026, 01:35 UTC

1 54842C 22177Y   26258.06645833  .00026001  00000+0  94197-3 0  2589
2 54842  43.0004 143.1694 0000946 248.4944 189.9061 15.27558341    14

Śledź STARLINK-5387 w czasie rzeczywistym z AllMySat

Download on the App Store